This is the latest recevied weather packets stored in our database for station/object W8MRL. If no packets are shown the sender has not sent any weather packets the latest 10 day(s).
| Time | Temp. | Humidity | Pressure | Rain* | Wind** | Luminosity | Snow |
|---|---|---|---|---|---|---|---|
| 1777698949 | 3.89° C | 87% | 1021.7 hPa | 0 mm | - | - | - |
| 1777698048 | 3.89° C | 88% | 1021.8 hPa | 0 mm | - | - | - |
| 1777697146 | 3.89° C | 90% | 1022 hPa | 0 mm | - | - | - |
| 1777696252 | 3.89° C | 91% | 1021.8 hPa | 0 mm | - | - | - |
| 1777695351 | 3.89° C | 90% | 1021.8 hPa | 0 mm | - | - | - |
| 1777694441 | 3.33° C | 92% | 1021.8 hPa | 0 mm | - | - | - |
| 1777693544 | 3.89° C | 91% | 1021.8 hPa | 0 mm | - | - | - |
| 1777692639 | 3.89° C | 90% | 1021.7 hPa | 0 mm | - | - | - |
| 1777691737 | 3.89° C | 89% | 1021.7 hPa | 0 mm | - | - | - |
| 1777690835 | 4.44° C | 88% | 1021.7 hPa | 0 mm | - | - | - |
| 1777689932 | 5° C | 86% | 1021.5 hPa | 0 mm | - | - | - |
| 1777689029 | 5.56° C | 83% | 1021.7 hPa | 0 mm | - | - | - |
| 1777688128 | 6.67° C | 79% | 1021.5 hPa | 0 mm | - | - | - |
| 1777687226 | 7.22° C | 77% | 1021.3 hPa | 0 mm | - | - | - |
| 1777686327 | 7.78° C | 75% | 1021 hPa | 0 mm | - | - | - |
| 1777685422 | 8.33° C | 73% | 1020.8 hPa | 0 mm | - | - | - |
| 1777684524 | 8.33° C | 73% | 1020.5 hPa | 0 mm | - | - | - |
| 1777683619 | 8.33° C | 73% | 1020.2 hPa | 0 mm | - | - | - |
| 1777682717 | 8.33° C | 73% | 1020 hPa | 0 mm | - | - | - |
| 1777681819 | 8.33° C | 72% | 1019.6 hPa | 0 mm | - | - | - |
| 1777680916 | 9.44° C | 68% | 1019.5 hPa | 0 mm | - | - | - |
| 1777680016 | 10° C | 65% | 1019.6 hPa | 0 mm | - | - | - |
| 1777679116 | 11.11° C | 61% | 1019.6 hPa | 0 mm | - | - | - |
| 1777678214 | 12.22° C | 58% | 1019.6 hPa | 0 mm | - | - | - |
| 1777677313 | 11.67° C | 62% | 1019.5 hPa | 0 mm | - | - | - |
* Rain latest hour (hover to see other rain measurements)
** Current wind speed in m/s (hover to see current wind gust speed)